Hourly Data Report for October 19, 2013

All times are specified in Local Standard Time (LST). Add 1 hour to adjust for Daylight Saving Time where and when it is observed.

SAINT JOHN A
NEW BRUNSWICK

45°18'58.000" N
65°53'24.000" W
108.80 m
8104901
71609
YSJ

Download Data

Hourly Data (October 2013)
Hourly Data Report for October 19, 2013
Temp Definition
°C
Dew Point Temp Definition
°C
Rel Hum Definition
%
Wind Dir Definition
10's deg

Wind Spd Definition
km/h
Visibility Definition
km
Stn Press Definition
kPa
Hmdx Definition


Wind Chill Definition


Weather Definition


TIME
00:00 Legend Double Dagger 9.8 9.0 95 27 12 24.1 99.36     LegendNANA
01:00 Legend Double Dagger 10.1 8.7 91 28 13 24.1 99.39     LegendNANA
02:00 Legend Double Dagger 9.6 8.2 91 25 12 24.1 99.44     Mainly Clear
03:00 Legend Double Dagger 9.1 7.6 90 26 9 24.1 99.45     LegendNANA
04:00 Legend Double Dagger 9.0 6.8 86 27 16 24.1 99.52     LegendNANA
05:00 Legend Double Dagger 8.8 5.7 81 29 17 24.1 99.55     Clear
06:00 Legend Double Dagger 8.1 5.6 84 27 13 24.1 99.58     LegendNANA
07:00 Legend Double Dagger 7.3 5.5 88 25 9 24.1 99.67     LegendNANA
08:00 Legend Double Dagger 9.1 6.0 81 26 13 24.1 99.72     Mainly Clear
09:00 Legend Double Dagger 10.7 6.3 74 26 18 24.1 99.76     LegendNANA
10:00 Legend Double Dagger 12.2 5.9 65 27 21 24.1 99.77     LegendNANA
11:00 Legend Double Dagger 13.5 4.7 55 27 18 24.1 99.77     Mainly Clear
12:00 Legend Double Dagger 14.2 4.6 52 26 24 24.1 99.74     LegendNANA
13:00 Legend Double Dagger 14.8 4.6 50 28 28 24.1 99.73     LegendNANA
14:00 Legend Double Dagger 15.8 4.6 47 28 19 24.1 99.76     Mainly Clear
15:00 Legend Double Dagger 15.2 6.3 55 23 22 24.1 99.75     LegendNANA
16:00 Legend Double Dagger 14.1 6.5 60 23 22 24.1 99.79     LegendNANA
17:00 Legend Double Dagger 11.8 7.2 73 22 21 24.1 99.88     Mostly Cloudy
18:00 Legend Double Dagger 10.6 8.2 85 22 12 24.1 99.87     LegendNANA
19:00 Legend Double Dagger 10.3 7.9 85 18 10 24.1 99.86     LegendNANA
20:00 Legend Double Dagger 8.6 7.7 94 19 5 24.1 99.85     Cloudy
21:00 Legend Double Dagger 6.8 6.4 97 27 1 24.1 99.84     LegendNANA
22:00 Legend Double Dagger 7.7 7.3 97 20 9 24.1 99.85     LegendNANA
23:00 Legend Double Dagger 8.1 7.7 97 19 5 24.1 99.79     Mostly Cloudy

Notes on Data Quality.

Legend

  • E = Estimated
  • M = Missing
  • NA = Not Available
  • ‡ = Partner data that is not subject to review by the National Climate Archives
Date modified: